Year,Month,Day,Hour,Minute,Value (Times are PST for temperature in C)
2016,12,12,00,00,1.10
2016,12,12,00,01,1.10
2016,12,12,00,02,1.10
2016,12,12,00,03,1.10
2016,12,12,00,04,1.10
2016,12,12,00,05,1.10
2016,12,12,00,06,1.10
2016,12,12,00,07,1.10
2016,12,12,00,08,1.10
2016,12,12,00,09,1.10
2016,12,12,00,10,1.10
2016,12,12,00,11,1.10
2016,12,12,00,12,1.10
2016,12,12,00,13,1.10
2016,12,12,00,14,1.10
2016,12,12,00,15,1.10
2016,12,12,00,16,1.10
2016,12,12,00,17,1.10
2016,12,12,00,18,1.10
2016,12,12,00,19,1.10
2016,12,12,00,20,1.10
2016,12,12,00,21,1.10
2016,12,12,00,22,1.10
2016,12,12,00,23,1.10
2016,12,12,00,24,1.10
2016,12,12,00,25,1.10
2016,12,12,00,26,1.10
2016,12,12,00,27,1.10
2016,12,12,00,28,1.10
2016,12,12,00,29,1.10
2016,12,12,00,30,1.10
2016,12,12,00,31,1.10
2016,12,12,00,32,1.10
2016,12,12,00,33,1.10
2016,12,12,00,34,1.10
2016,12,12,00,35,1.10
2016,12,12,00,36,1.10
2016,12,12,00,37,1.10
2016,12,12,00,38,1.10
2016,12,12,00,39,1.10
2016,12,12,00,40,1.10
2016,12,12,00,41,1.10
2016,12,12,00,42,1.10
2016,12,12,00,43,1.10
2016,12,12,00,44,1.10
2016,12,12,00,45,1.00
2016,12,12,00,46,1.00
2016,12,12,00,47,1.00
2016,12,12,00,48,1.00
2016,12,12,00,49,1.00
2016,12,12,00,50,1.00
2016,12,12,00,51,1.00
2016,12,12,00,52,1.00
2016,12,12,00,53,1.00
2016,12,12,00,54,1.00
2016,12,12,00,55,1.00
2016,12,12,00,56,1.00
2016,12,12,00,57,1.10
2016,12,12,00,58,1.10
2016,12,12,00,59,1.10
2016,12,12,01,00,1.10
2016,12,12,01,01,1.10
2016,12,12,01,02,1.10
2016,12,12,01,03,1.10
2016,12,12,01,04,1.10
2016,12,12,01,05,1.10
2016,12,12,01,06,1.10
2016,12,12,01,07,1.10
2016,12,12,01,08,1.10
2016,12,12,01,09,1.10
2016,12,12,01,10,1.00
2016,12,12,01,11,1.10
2016,12,12,01,12,1.10
2016,12,12,01,13,1.10
2016,12,12,01,14,1.10
2016,12,12,01,15,1.00
2016,12,12,01,16,1.00
2016,12,12,01,17,1.00
2016,12,12,01,18,1.00
2016,12,12,01,19,1.00
2016,12,12,01,20,1.00
2016,12,12,01,21,0.90
2016,12,12,01,22,0.90
2016,12,12,01,23,1.00
2016,12,12,01,24,1.00
2016,12,12,01,25,1.00
2016,12,12,01,26,1.00
2016,12,12,01,27,1.00
2016,12,12,01,28,1.00
2016,12,12,01,29,1.00
2016,12,12,01,30,1.00
2016,12,12,01,31,1.00
2016,12,12,01,32,1.00
2016,12,12,01,33,1.00
2016,12,12,01,34,1.00
2016,12,12,01,35,1.00
2016,12,12,01,36,1.00
2016,12,12,01,37,1.00
2016,12,12,01,38,1.00
2016,12,12,01,39,1.00
2016,12,12,01,40,1.00
2016,12,12,01,41,1.00
2016,12,12,01,42,0.90
2016,12,12,01,43,0.90
2016,12,12,01,44,0.90
2016,12,12,01,45,0.90
2016,12,12,01,46,0.90
2016,12,12,01,47,0.90
2016,12,12,01,48,0.90
2016,12,12,01,49,1.00
2016,12,12,01,50,1.00
2016,12,12,01,51,1.00
2016,12,12,01,52,1.10
2016,12,12,01,53,1.10
2016,12,12,01,54,1.10
2016,12,12,01,55,1.10
2016,12,12,01,56,1.20
2016,12,12,01,57,1.20
2016,12,12,01,58,1.20
2016,12,12,01,59,1.20
2016,12,12,02,00,1.20
2016,12,12,02,01,1.10
2016,12,12,02,02,1.10
2016,12,12,02,03,1.10
2016,12,12,02,04,1.10
2016,12,12,02,05,1.10
2016,12,12,02,06,1.10
2016,12,12,02,07,1.10
2016,12,12,02,08,1.10
2016,12,12,02,09,1.10
2016,12,12,02,10,1.00
2016,12,12,02,11,1.00
2016,12,12,02,12,1.00
2016,12,12,02,13,1.00
2016,12,12,02,14,0.90
2016,12,12,02,15,0.90
2016,12,12,02,16,0.90
2016,12,12,02,17,0.90
2016,12,12,02,18,0.90
2016,12,12,02,19,0.90
2016,12,12,02,20,0.90
2016,12,12,02,21,1.00
2016,12,12,02,22,1.00
2016,12,12,02,23,1.00
2016,12,12,02,24,0.90
2016,12,12,02,25,0.90
2016,12,12,02,26,0.90
2016,12,12,02,27,0.90
2016,12,12,02,28,0.90
2016,12,12,02,29,0.90
2016,12,12,02,30,0.90
2016,12,12,02,31,0.90
2016,12,12,02,32,0.90
2016,12,12,02,33,0.90
2016,12,12,02,34,0.90
2016,12,12,02,35,0.90
2016,12,12,02,36,1.00
2016,12,12,02,37,1.00
2016,12,12,02,38,1.00
2016,12,12,02,39,1.00
2016,12,12,02,40,1.00
2016,12,12,02,41,1.00
2016,12,12,02,42,1.00
2016,12,12,02,43,1.00
2016,12,12,02,44,1.00
2016,12,12,02,45,1.00
2016,12,12,02,46,1.00
2016,12,12,02,47,1.00
2016,12,12,02,48,1.00
2016,12,12,02,49,1.00
2016,12,12,02,50,1.00
2016,12,12,02,51,1.00
2016,12,12,02,52,1.00
2016,12,12,02,53,1.00
2016,12,12,02,54,1.00
2016,12,12,02,55,1.00
2016,12,12,02,56,1.10
2016,12,12,02,57,1.10
2016,12,12,02,58,1.10
2016,12,12,02,59,1.10
2016,12,12,03,00,1.10
2016,12,12,03,01,1.10
2016,12,12,03,02,1.10
2016,12,12,03,03,1.10
2016,12,12,03,04,1.10
2016,12,12,03,05,1.10
2016,12,12,03,06,1.10
2016,12,12,03,07,1.10
2016,12,12,03,08,1.10
2016,12,12,03,09,1.10
2016,12,12,03,10,1.10
2016,12,12,03,11,1.10
2016,12,12,03,12,1.10
2016,12,12,03,13,1.10
2016,12,12,03,14,1.10
2016,12,12,03,15,1.10
2016,12,12,03,16,1.10
2016,12,12,03,17,1.10
2016,12,12,03,18,1.10
2016,12,12,03,19,1.10
2016,12,12,03,20,1.10
2016,12,12,03,21,1.10
2016,12,12,03,22,1.10
2016,12,12,03,23,1.10
2016,12,12,03,24,1.10
2016,12,12,03,25,1.10
2016,12,12,03,26,1.10
2016,12,12,03,27,1.00
2016,12,12,03,28,1.00
2016,12,12,03,29,1.00
2016,12,12,03,30,1.00
2016,12,12,03,31,1.00
2016,12,12,03,32,1.00
2016,12,12,03,33,1.00
2016,12,12,03,34,1.00
2016,12,12,03,35,1.00
2016,12,12,03,36,1.00
2016,12,12,03,37,1.00
2016,12,12,03,38,1.00
2016,12,12,03,39,1.00
2016,12,12,03,40,1.00
2016,12,12,03,41,1.00
2016,12,12,03,42,1.00
2016,12,12,03,43,1.00
2016,12,12,03,44,1.00
2016,12,12,03,45,1.00
2016,12,12,03,46,1.00
2016,12,12,03,47,1.00
2016,12,12,03,48,1.00
2016,12,12,03,49,1.00
2016,12,12,03,50,1.00
2016,12,12,03,51,1.00
2016,12,12,03,52,1.00
2016,12,12,03,53,1.00
2016,12,12,03,54,1.00
2016,12,12,03,55,1.00
2016,12,12,03,56,1.00
2016,12,12,03,57,1.00
2016,12,12,03,58,1.00
2016,12,12,03,59,1.00
2016,12,12,04,00,1.00
2016,12,12,04,01,1.00
2016,12,12,04,02,1.00
2016,12,12,04,03,1.00
2016,12,12,04,04,0.90
2016,12,12,04,05,0.90
2016,12,12,04,06,0.90
2016,12,12,04,07,0.90
2016,12,12,04,08,0.90
2016,12,12,04,09,0.90
2016,12,12,04,10,0.90
2016,12,12,04,11,0.90
2016,12,12,04,12,0.90
2016,12,12,04,13,0.90
2016,12,12,04,14,0.90
2016,12,12,04,15,0.90
2016,12,12,04,16,0.90
2016,12,12,04,17,0.90
2016,12,12,04,18,0.90
2016,12,12,04,19,0.90
2016,12,12,04,20,0.90
2016,12,12,04,21,0.90
2016,12,12,04,22,0.90
2016,12,12,04,23,0.90
2016,12,12,04,24,0.90
2016,12,12,04,25,0.90
2016,12,12,04,26,0.90
2016,12,12,04,27,0.90
2016,12,12,04,28,0.90
2016,12,12,04,29,0.90
2016,12,12,04,30,0.90
2016,12,12,04,31,0.90
2016,12,12,04,32,0.90
2016,12,12,04,33,1.00
2016,12,12,04,34,0.90
2016,12,12,04,35,0.90
2016,12,12,04,36,0.90
2016,12,12,04,37,0.90
2016,12,12,04,38,0.90
2016,12,12,04,39,0.90
2016,12,12,04,40,0.90
2016,12,12,04,41,0.90
2016,12,12,04,42,0.90
2016,12,12,04,43,0.90
2016,12,12,04,44,0.90
2016,12,12,04,45,0.90
2016,12,12,04,46,0.90
2016,12,12,04,47,0.90
2016,12,12,04,48,0.90
2016,12,12,04,49,0.90
2016,12,12,04,50,0.90
2016,12,12,04,51,0.90
2016,12,12,04,52,0.90
2016,12,12,04,53,0.90
2016,12,12,04,54,0.90
2016,12,12,04,55,0.90
2016,12,12,04,56,0.90
2016,12,12,04,57,0.90
2016,12,12,04,58,0.90
2016,12,12,04,59,0.90
2016,12,12,05,00,0.90
2016,12,12,05,01,0.90
2016,12,12,10,30,1.30
2016,12,12,10,31,1.30
2016,12,12,10,32,1.30
2016,12,12,10,33,1.30
2016,12,12,10,34,1.30
2016,12,12,10,35,1.30
2016,12,12,10,36,1.30
2016,12,12,10,37,1.30
2016,12,12,10,38,1.30
2016,12,12,10,39,1.30
2016,12,12,10,40,1.30
2016,12,12,10,41,1.30
2016,12,12,10,42,1.30
2016,12,12,10,43,1.30
2016,12,12,10,44,1.30
2016,12,12,10,45,1.30
2016,12,12,10,46,1.30
2016,12,12,10,47,1.30
2016,12,12,10,48,1.40
2016,12,12,10,49,1.40
2016,12,12,10,50,1.40
2016,12,12,10,51,1.40
2016,12,12,10,52,1.40
2016,12,12,10,53,1.40
2016,12,12,10,54,1.40
2016,12,12,10,55,1.40
2016,12,12,10,56,1.50
2016,12,12,10,57,1.50
2016,12,12,10,58,1.50
2016,12,12,10,59,1.60
2016,12,12,11,00,1.60
2016,12,12,11,01,1.60
2016,12,12,11,02,1.60
2016,12,12,11,03,1.60
2016,12,12,11,04,1.60
2016,12,12,11,05,1.60
2016,12,12,11,06,1.60
2016,12,12,11,07,1.60
2016,12,12,11,08,1.70
2016,12,12,11,09,1.70
2016,12,12,11,10,1.70
2016,12,12,11,11,1.70
2016,12,12,11,12,1.70
2016,12,12,11,13,1.70
2016,12,12,11,14,1.70
2016,12,12,11,15,1.80
2016,12,12,11,16,1.80
2016,12,12,11,17,1.80
2016,12,12,11,18,1.80
2016,12,12,11,19,1.80
2016,12,12,11,20,1.80
2016,12,12,11,21,1.80
2016,12,12,11,22,1.80
2016,12,12,11,23,1.80
2016,12,12,11,24,1.80
2016,12,12,11,25,1.80
2016,12,12,11,26,1.80
2016,12,12,11,27,1.80
2016,12,12,11,28,1.80
2016,12,12,11,29,1.80
2016,12,12,11,30,1.80
2016,12,12,11,31,1.80
2016,12,12,11,32,1.90
2016,12,12,11,33,1.90
2016,12,12,11,34,1.90
2016,12,12,11,35,1.90
2016,12,12,11,36,2.00
2016,12,12,11,37,2.00
2016,12,12,11,38,2.00
2016,12,12,11,39,2.00
2016,12,12,11,40,2.00
2016,12,12,11,41,2.00
2016,12,12,11,42,2.00
2016,12,12,11,43,1.90
2016,12,12,11,44,1.90
2016,12,12,11,45,1.90
2016,12,12,11,46,1.90
2016,12,12,11,47,1.80
2016,12,12,11,48,1.80
2016,12,12,11,49,1.80
2016,12,12,11,50,1.80
2016,12,12,11,51,1.70
2016,12,12,11,52,1.70
2016,12,12,11,53,1.70
2016,12,12,11,54,1.70
2016,12,12,11,55,1.70
2016,12,12,11,56,1.70
2016,12,12,11,57,1.70
2016,12,12,11,58,1.80
2016,12,12,11,59,1.80
2016,12,12,12,00,1.80
2016,12,12,12,01,1.80
2016,12,12,12,02,1.80
2016,12,12,12,03,1.80
2016,12,12,12,04,1.80
2016,12,12,12,05,1.80
2016,12,12,12,06,1.80
2016,12,12,12,07,1.80
2016,12,12,12,08,1.80
2016,12,12,12,09,1.80
2016,12,12,12,10,1.80
2016,12,12,12,11,1.80
2016,12,12,12,12,1.80
2016,12,12,12,13,1.80
2016,12,12,12,14,1.80
2016,12,12,12,15,1.80
2016,12,12,12,16,1.80
2016,12,12,12,17,1.80
2016,12,12,12,18,1.80
2016,12,12,12,19,1.80
2016,12,12,12,20,1.80
2016,12,12,12,21,1.80
2016,12,12,12,22,1.70
2016,12,12,12,23,1.70
2016,12,12,12,24,1.70
2016,12,12,12,25,1.70
2016,12,12,12,26,1.70
2016,12,12,12,27,1.70
2016,12,12,12,28,1.70
2016,12,12,12,29,1.70
2016,12,12,12,30,1.70
2016,12,12,12,31,1.70
2016,12,12,12,32,1.70
2016,12,12,12,33,1.80
2016,12,12,12,34,1.80
2016,12,12,12,35,1.80
2016,12,12,12,36,1.80
2016,12,12,12,37,1.80
2016,12,12,12,38,1.80
2016,12,12,12,39,1.80
2016,12,12,12,40,1.80
2016,12,12,12,41,1.80
2016,12,12,12,42,1.80
2016,12,12,12,43,1.80
2016,12,12,12,44,1.80
2016,12,12,12,45,1.80
2016,12,12,12,46,1.80
2016,12,12,12,47,1.80
2016,12,12,12,48,1.70
2016,12,12,12,49,1.70
2016,12,12,12,50,1.70
2016,12,12,12,51,1.70
2016,12,12,12,52,1.60
2016,12,12,12,53,1.60
2016,12,12,12,54,1.60
2016,12,12,12,55,1.60
2016,12,12,12,56,1.60
2016,12,12,12,57,1.60
2016,12,12,12,58,1.60
2016,12,12,12,59,1.60
2016,12,12,13,00,1.60
2016,12,12,13,01,1.50
2016,12,12,13,02,1.50
2016,12,12,13,03,1.50
2016,12,12,13,04,1.50
2016,12,12,13,05,1.50
2016,12,12,13,06,1.50
2016,12,12,13,07,1.50
2016,12,12,13,08,1.50
2016,12,12,13,09,1.50
2016,12,12,13,10,1.50
2016,12,12,13,11,1.50
2016,12,12,13,12,1.50
2016,12,12,13,13,1.60
2016,12,12,13,14,1.60
2016,12,12,13,15,1.60
2016,12,12,13,16,1.60
2016,12,12,13,17,1.60
2016,12,12,13,18,1.60
2016,12,12,13,19,1.60
2016,12,12,13,20,1.60
2016,12,12,13,21,1.60
2016,12,12,13,22,1.60
2016,12,12,13,23,1.70
2016,12,12,13,24,1.70
2016,12,12,13,25,1.70
2016,12,12,13,26,1.70
2016,12,12,13,27,1.60
2016,12,12,13,28,1.70
2016,12,12,13,29,1.60
2016,12,12,13,30,1.70
2016,12,12,13,31,1.60
2016,12,12,13,32,1.70
2016,12,12,13,33,1.70
2016,12,12,13,34,1.70
2016,12,12,13,35,1.70
2016,12,12,13,36,1.70
2016,12,12,13,37,1.70
2016,12,12,13,38,1.70
2016,12,12,13,39,1.70
2016,12,12,13,40,1.70
2016,12,12,13,41,1.70
2016,12,12,13,42,1.70
2016,12,12,13,43,1.70
2016,12,12,13,44,1.70
2016,12,12,13,45,1.70
2016,12,12,13,46,1.70
2016,12,12,13,47,1.70
2016,12,12,13,48,1.70
2016,12,12,13,49,1.70
2016,12,12,13,50,1.80
2016,12,12,13,51,1.80
2016,12,12,13,52,1.80
2016,12,12,13,53,1.80
2016,12,12,13,54,1.80
2016,12,12,13,55,1.80
2016,12,12,13,56,1.80
2016,12,12,13,57,1.80
2016,12,12,13,58,1.80
2016,12,12,13,59,1.80
2016,12,12,14,00,1.80
2016,12,12,14,01,1.80
2016,12,12,14,02,1.80
2016,12,12,14,03,1.90
2016,12,12,14,04,1.90
2016,12,12,14,05,1.90
2016,12,12,14,06,1.90
2016,12,12,14,07,1.90
2016,12,12,14,08,1.90
2016,12,12,14,09,1.90
2016,12,12,14,10,1.90
2016,12,12,14,11,1.90
2016,12,12,14,12,1.90
2016,12,12,14,13,1.90
2016,12,12,17,03,1.80
2016,12,12,17,04,1.80
2016,12,12,17,05,1.80
2016,12,12,17,06,1.80
2016,12,12,17,07,1.80
2016,12,12,17,08,1.80
2016,12,12,17,09,1.70
2016,12,12,17,10,1.70
2016,12,12,17,11,1.80
2016,12,12,17,12,1.70
2016,12,12,17,13,1.70
2016,12,12,17,14,1.70
2016,12,12,17,15,1.70
2016,12,12,17,16,1.70
2016,12,12,17,17,1.70
2016,12,12,17,18,1.70
2016,12,12,17,19,1.70
2016,12,12,17,20,1.70
2016,12,12,17,21,1.60
2016,12,12,17,22,1.70
2016,12,12,17,23,1.60
2016,12,12,17,24,1.60
2016,12,12,17,25,1.60
2016,12,12,17,26,1.60
2016,12,12,17,27,1.60
2016,12,12,17,28,1.60
2016,12,12,17,29,1.60
2016,12,12,17,30,1.60
2016,12,12,17,31,1.60
2016,12,12,17,32,1.60
2016,12,12,17,33,1.60
2016,12,12,17,34,1.60
2016,12,12,17,35,1.60
2016,12,12,17,36,1.60
2016,12,12,17,37,1.60
2016,12,12,17,38,1.60
2016,12,12,17,39,1.60
2016,12,12,17,40,1.60
2016,12,12,17,41,1.60
2016,12,12,17,42,1.60
2016,12,12,17,43,1.60
2016,12,12,17,44,1.60
2016,12,12,17,45,1.60
2016,12,12,17,46,1.60
2016,12,12,17,47,1.60
2016,12,12,17,48,1.60
2016,12,12,17,49,1.60
2016,12,12,17,50,1.60
2016,12,12,17,51,1.60
2016,12,12,17,52,1.60
2016,12,12,17,53,1.60
2016,12,12,17,54,1.60
2016,12,12,17,55,1.60
2016,12,12,17,56,1.60
2016,12,12,17,57,1.60
2016,12,12,17,58,1.60
2016,12,12,17,59,1.60
2016,12,12,18,00,1.60
2016,12,12,18,01,1.60
2016,12,12,18,02,1.60
2016,12,12,18,03,1.60
2016,12,12,18,04,1.60
2016,12,12,18,05,1.60
2016,12,12,18,06,1.60
2016,12,12,18,07,1.60
2016,12,12,18,08,1.60
2016,12,12,18,09,1.60
2016,12,12,18,10,1.60
2016,12,12,18,11,1.60
2016,12,12,18,12,1.60
2016,12,12,18,13,1.60
2016,12,12,18,14,1.60
2016,12,12,18,15,1.60
2016,12,12,18,16,1.60
2016,12,12,18,17,1.60
2016,12,12,18,18,1.60
2016,12,12,18,19,1.60
2016,12,12,18,20,1.60
2016,12,12,18,21,1.50
2016,12,12,18,22,1.50
2016,12,12,18,23,1.50
2016,12,12,18,24,1.50
2016,12,12,18,25,1.50
2016,12,12,18,26,1.50
2016,12,12,18,27,1.50
2016,12,12,18,28,1.50
2016,12,12,18,29,1.50
2016,12,12,18,30,1.40
2016,12,12,18,31,1.40
2016,12,12,18,32,1.40
2016,12,12,18,33,1.40
2016,12,12,18,34,1.40
2016,12,12,18,35,1.40
2016,12,12,18,36,1.40
2016,12,12,18,37,1.40
2016,12,12,18,38,1.40
2016,12,12,18,39,1.30
2016,12,12,18,40,1.30
2016,12,12,18,41,1.30
2016,12,12,18,42,1.30
2016,12,12,18,43,1.30
2016,12,12,18,44,1.30
2016,12,12,18,45,1.30
2016,12,12,18,46,1.30
2016,12,12,18,47,1.30
2016,12,12,18,48,1.30
2016,12,12,18,49,1.30
2016,12,12,18,50,1.30
2016,12,12,18,51,1.30
2016,12,12,18,52,1.30
2016,12,12,18,53,1.30
2016,12,12,18,54,1.30
2016,12,12,18,55,1.30
2016,12,12,18,56,1.30
2016,12,12,18,57,1.30
2016,12,12,18,58,1.30
2016,12,12,18,59,1.30
2016,12,12,19,00,1.30
2016,12,12,19,01,1.30
2016,12,12,19,02,1.30
2016,12,12,19,03,1.30
2016,12,12,19,04,1.30
2016,12,12,19,05,1.30
2016,12,12,19,06,1.30
2016,12,12,19,07,1.30
2016,12,12,19,08,1.30
2016,12,12,19,09,1.30
2016,12,12,19,10,1.30
2016,12,12,19,11,1.30
2016,12,12,19,12,1.30
2016,12,12,19,13,1.30
2016,12,12,19,14,1.30
2016,12,12,19,15,1.30
2016,12,12,19,16,1.30
2016,12,12,19,17,1.30
2016,12,12,19,18,1.30
2016,12,12,19,19,1.30
2016,12,12,19,20,1.30
2016,12,12,19,21,1.30
2016,12,12,19,22,1.30
2016,12,12,19,23,1.30
2016,12,12,19,24,1.30
2016,12,12,19,25,1.30
2016,12,12,19,26,1.30
2016,12,12,19,27,1.30
2016,12,12,19,28,1.30
2016,12,12,19,29,1.30
2016,12,12,19,30,1.30
2016,12,12,19,31,1.30
2016,12,12,19,32,1.30
2016,12,12,19,33,1.30
2016,12,12,19,34,1.30
2016,12,12,19,35,1.30
2016,12,12,19,36,1.30
2016,12,12,19,37,1.30
2016,12,12,19,38,1.30
2016,12,12,19,39,1.30
2016,12,12,19,40,1.30
2016,12,12,19,41,1.30
2016,12,12,19,42,1.20
2016,12,12,19,43,1.20
2016,12,12,19,44,1.20
2016,12,12,19,45,1.20
2016,12,12,19,46,1.20
2016,12,12,19,47,1.20
2016,12,12,19,48,1.20
2016,12,12,19,49,1.20
2016,12,12,19,50,1.20
2016,12,12,19,51,1.20
2016,12,12,19,52,1.20
2016,12,12,19,53,1.20
2016,12,12,19,54,1.20
2016,12,12,19,55,1.20
2016,12,12,19,56,1.20
2016,12,12,19,57,1.20
2016,12,12,19,58,1.10
2016,12,12,19,59,1.10
2016,12,12,20,00,1.10
2016,12,12,20,01,1.10
2016,12,12,20,02,1.10
2016,12,12,20,03,1.10
2016,12,12,20,04,1.10
2016,12,12,20,05,1.10
2016,12,12,20,06,1.10
2016,12,12,20,07,1.10
2016,12,12,20,08,1.10
2016,12,12,20,09,1.10
2016,12,12,20,10,1.00
2016,12,12,20,11,1.00
2016,12,12,20,12,1.00
2016,12,12,20,13,0.90
2016,12,12,20,14,0.90
2016,12,12,20,15,0.90
2016,12,12,20,16,0.90
2016,12,12,20,17,0.90
2016,12,12,20,18,0.90
2016,12,12,20,19,0.90
2016,12,12,20,20,1.00
2016,12,12,20,21,1.00
2016,12,12,20,22,1.00
2016,12,12,20,23,1.00
2016,12,12,20,24,1.00
2016,12,12,20,25,1.00
2016,12,12,20,26,1.00
2016,12,12,20,27,1.00
2016,12,12,20,28,1.00
2016,12,12,20,29,1.00
2016,12,12,20,30,1.10
2016,12,12,20,31,1.10
2016,12,12,20,32,1.10
2016,12,12,20,33,1.10
2016,12,12,20,34,1.10
2016,12,12,20,35,1.00
2016,12,12,20,36,1.00
2016,12,12,20,37,1.00
2016,12,12,20,38,1.00
2016,12,12,20,39,1.00
2016,12,12,20,40,1.00
2016,12,12,20,41,0.90
2016,12,12,20,42,0.90
2016,12,12,20,43,0.90
2016,12,12,20,44,0.90
2016,12,12,20,45,0.90
2016,12,12,20,46,0.90
2016,12,12,20,47,0.90
2016,12,12,20,48,0.90
2016,12,12,20,49,0.80
2016,12,12,20,50,0.80
2016,12,12,20,51,0.80
2016,12,12,20,52,0.80
2016,12,12,20,53,0.80
2016,12,12,20,54,0.80
2016,12,12,20,55,0.80
2016,12,12,20,56,0.80
2016,12,12,20,57,0.80
2016,12,12,20,58,0.80
2016,12,12,20,59,0.80
2016,12,12,21,00,0.80
2016,12,12,21,01,0.80
2016,12,12,21,02,0.80
2016,12,12,21,03,0.80
2016,12,12,21,04,0.80
2016,12,12,21,05,0.80
2016,12,12,21,06,0.80
2016,12,12,21,07,0.80
2016,12,12,21,08,0.80
2016,12,12,21,09,0.80
2016,12,12,21,10,0.80
2016,12,12,21,11,0.80
2016,12,12,21,12,0.80
2016,12,12,21,13,0.80
2016,12,12,21,14,0.80
2016,12,12,21,15,0.80
2016,12,12,21,16,0.80
2016,12,12,21,17,0.70
2016,12,12,21,18,0.80
2016,12,12,21,19,0.80
2016,12,12,21,20,0.80
2016,12,12,21,21,0.70
2016,12,12,21,22,0.70
2016,12,12,21,23,0.70
2016,12,12,21,24,0.70
2016,12,12,21,25,0.70
2016,12,12,21,26,0.70
2016,12,12,21,27,0.70
2016,12,12,21,28,0.70
2016,12,12,21,29,0.70
2016,12,12,21,30,0.70
2016,12,12,21,31,0.70
2016,12,12,21,32,0.70
2016,12,12,21,33,0.70
2016,12,12,21,34,0.70
2016,12,12,21,35,0.70
2016,12,12,21,36,0.70
2016,12,12,21,37,0.70
2016,12,12,21,38,0.70
2016,12,12,21,39,0.70
2016,12,12,21,40,0.70
2016,12,12,21,41,0.70
2016,12,12,21,42,0.70
2016,12,12,21,43,0.70
2016,12,12,21,44,0.70
2016,12,12,21,45,0.70
2016,12,12,21,46,0.70
2016,12,12,21,47,0.70
2016,12,12,21,48,0.80
2016,12,12,21,49,0.80
2016,12,12,21,50,0.80
2016,12,12,21,51,0.80
2016,12,12,21,52,0.80
2016,12,12,21,53,0.80
2016,12,12,21,54,0.80
2016,12,12,21,55,0.80
2016,12,12,21,56,0.80
2016,12,12,21,57,0.80
2016,12,12,21,58,0.80
2016,12,12,21,59,0.80
2016,12,12,22,00,0.80
2016,12,12,22,01,0.80
2016,12,12,22,02,0.80
2016,12,12,22,03,0.80
2016,12,12,22,04,0.80
2016,12,12,22,05,0.80
2016,12,12,22,06,0.80
2016,12,12,22,07,0.80
2016,12,12,22,08,0.80
2016,12,12,22,09,0.80
2016,12,12,22,10,0.80
2016,12,12,22,11,0.80
2016,12,12,22,12,0.80
2016,12,12,22,13,0.80
2016,12,12,22,14,0.80
2016,12,12,22,15,0.80
2016,12,12,22,16,0.80
2016,12,12,22,17,0.80
2016,12,12,22,18,0.80
2016,12,12,22,19,0.80
2016,12,12,22,20,0.80
2016,12,12,22,21,0.80
2016,12,12,22,22,0.80
2016,12,12,22,23,0.80
2016,12,12,22,24,0.80
2016,12,12,22,25,0.80
2016,12,12,22,26,0.80
2016,12,12,22,27,0.90
2016,12,12,22,28,0.80
2016,12,12,22,29,0.80
2016,12,12,22,30,0.80
2016,12,12,22,31,0.80
2016,12,12,22,32,0.80
2016,12,12,22,33,0.70
2016,12,12,22,34,0.70
2016,12,12,22,35,0.70
2016,12,12,22,36,0.80
2016,12,12,22,37,0.80
2016,12,12,22,38,0.80
2016,12,12,22,39,0.80
2016,12,12,22,40,0.80
2016,12,12,22,41,0.80
2016,12,12,22,42,0.80
2016,12,12,22,43,0.80
2016,12,12,22,44,0.80
2016,12,12,22,45,0.80
2016,12,12,22,46,0.80
2016,12,12,22,47,0.80
2016,12,12,22,48,0.80
2016,12,12,22,49,0.70
2016,12,12,22,50,0.80
2016,12,12,22,51,0.80
2016,12,12,22,52,0.80
2016,12,12,22,53,0.80
2016,12,12,22,54,0.80
2016,12,12,22,55,0.70
2016,12,12,22,56,0.70
2016,12,12,22,57,0.70
2016,12,12,22,58,0.70
2016,12,12,22,59,0.70
2016,12,12,23,00,0.70
2016,12,12,23,01,0.70
2016,12,12,23,02,0.70
2016,12,12,23,03,0.70
2016,12,12,23,04,0.70
2016,12,12,23,05,0.70
2016,12,12,23,06,0.60
2016,12,12,23,07,0.60
2016,12,12,23,08,0.60
2016,12,12,23,09,0.60
2016,12,12,23,10,0.60
2016,12,12,23,11,0.60
2016,12,12,23,12,0.60
2016,12,12,23,13,0.60
2016,12,12,23,14,0.60
2016,12,12,23,15,0.60
2016,12,12,23,16,0.60
2016,12,12,23,17,0.60
2016,12,12,23,18,0.60
2016,12,12,23,19,0.60
2016,12,12,23,20,0.60
2016,12,12,23,21,0.60
2016,12,12,23,22,0.50
2016,12,12,23,23,0.50
2016,12,12,23,24,0.50
2016,12,12,23,25,0.50
2016,12,12,23,26,0.50
2016,12,12,23,27,0.40
2016,12,12,23,28,0.40
2016,12,12,23,29,0.40
2016,12,12,23,30,0.40
2016,12,12,23,31,0.40
2016,12,12,23,32,0.30
2016,12,12,23,33,0.30
2016,12,12,23,34,0.30
2016,12,12,23,35,0.30
2016,12,12,23,36,0.20
2016,12,12,23,37,0.20
2016,12,12,23,38,0.20
2016,12,12,23,39,0.20
2016,12,12,23,40,0.20
2016,12,12,23,41,0.10
2016,12,12,23,42,0.10
2016,12,12,23,43,0.10
2016,12,12,23,44,0.00
2016,12,12,23,45,0.00
2016,12,12,23,46,0.00
2016,12,12,23,47,-0.10
2016,12,12,23,48,-0.10
2016,12,12,23,49,-0.10
2016,12,12,23,50,-0.10
2016,12,12,23,51,-0.20
2016,12,12,23,52,-0.20
2016,12,12,23,53,-0.20
2016,12,12,23,54,-0.20
2016,12,12,23,55,-0.20
2016,12,12,23,56,-0.20
2016,12,12,23,57,-0.20
2016,12,12,23,58,-0.10
2016,12,12,23,59,-0.10
